Regional Weather Roundup
Issued by NWS

Home | Current Version | Previous Version | Graphics & Text | Print | Product List | Glossary On
Versions: 1 2 3 4 5 6 7 8 9 10 11 12 13 14 15 16 17 18 19 20 21 22 23 24 25 26 27 28 29 30 31 32 33 34 35 36 37 38 39 40 41 42 43 44 45 46 47 48 49 50
000
ASUS43 KOAX 271110
RWRNE

WEATHER ROUNDUP FOR NEBRASKA
NATIONAL WEATHER SERVICE OMAHA NE
600 AM CDT WED MAY 27 2015

NOTES: SATELLITE DATA IS BEING USED TO AUGMENT CLOUD COVER ABOVE
       12000 FEET.
       "FAIR" INDICATES FEW OR NO CLOUDS BELOW 12,000 FEET WITH NO
       SIGNIFICANT WEATHER AND/OR OBSTRUCTIONS TO VISIBILITY.

  * THESE STATIONS DO NOT REPORT WEATHER SUCH AS RAIN...SNOW OR FOG.

NEZ001>004-019>022-054>056-271200-
NEBRASKA PANHANDLE

CITY           SKY/WX    TMP DP  RH WIND       PRES   REMARKS
SCOTTSBLUFF    MOCLDY    54  50  86 CALM      30.03R
ALLIANCE       CLOUDY    53  50  89 SE6       30.03F
CHADRON        CLOUDY    57  52  83 S9        30.01S
KIMBALL          N/A    N/A N/A N/A MISG        N/A
SIDNEY         PTCLDY    52  49  89 SE12      30.05S
$$

NEZ057>060-069>072-079>082-271200-
SOUTHWEST NEBRASKA

CITY           SKY/WX    TMP DP  RH WIND       PRES   REMARKS
NORTH PLATTE   PTCLDY    47  45  93 E5        30.06R
IMPERIAL       MOCLDY    51  48  89 S3        30.07R
LEXINGTON      CLEAR     47  46  95 NE5       30.06S FOG
MCCOOK         CLOUDY    54  49  83 SW8       30.08R
OGALLALA       LGT RAIN  55  51  85 W5        30.07R
$$

NEZ005>010-023>029-035>040-094-271200-
NORTH CENTRAL NEBRASKA

CITY           SKY/WX    TMP DP  RH WIND       PRES   REMARKS
VALENTINE      PTCLDY    45  43  93 W5        30.03S
AINSWORTH      CLEAR     52  47  82 SW9       30.04R
BROKEN BOW     CLEAR     48  45  89 CALM      30.06R
O`NEILL        CLEAR     50  47  90 SW6       30.03R
ORD            CLEAR     46  43  89 CALM      30.03R
THEDFORD       CLEAR     50  46  85 CALM      30.05S
$$

NEZ041-046>049-061>064-073>077-083>087-271200-
SOUTH CENTRAL NEBRASKA

CITY           SKY/WX    TMP DP  RH WIND       PRES   REMARKS
GRAND ISLAND   CLEAR     50  46  86 W5        30.05R
AURORA         CLEAR     50  48  93 W6        30.04R
HASTINGS       CLEAR     53  46  77 W6        30.05R
HEBRON         CLEAR     48  46  91 CALM      30.05R
HOLDREGE       PTCLDY    48  44  87 CALM      30.05S
KEARNEY *      PTCLDY    54  46  76 NW5       30.05S
YORK           CLEAR     50  48  93 W6        30.04R
$$

NEZ011>018-030>034-042>045-271200-
NORTHEAST NEBRASKA

CITY           SKY/WX    TMP DP  RH WIND       PRES   REMARKS
NORFOLK        CLEAR     52  48  86 W3        30.01R
ALBION         CLEAR     48  46  91 NW3       30.03R
BLAIR          CLEAR     56  50  80 W7        30.00S
COLUMBUS *       N/A    N/A N/A N/A MISG        N/A
FREMONT        CLEAR     54  51  90 W3        30.01S
TEKAMAH        CLEAR     54  51  90 CALM      29.99R
WAYNE          CLEAR     49  47  93 CALM      30.00R
$$

NEZ050>053-065>068-078-088>093-271200-
SOUTHEAST NEBRASKA

CITY           SKY/WX    TMP DP  RH WIND       PRES   REMARKS
LINCOLN        CLEAR     52  47  83 CALM      30.03R
OMAHA EPPLEY   PTCLDY    54  52  93 CALM      30.00S
BEATRICE       CLEAR     50  49  95 CALM      30.04R
FALLS CITY     CLEAR     56  52  86 W7        30.02R
NEBRASKA CITY  FAIR      56  49  77 W9        30.02R
PLATTSMOUTH    CLEAR     56  50  80 W7        30.02R
$$

NEZ044-045-051>053-067-271200-
OMAHA AREA

CITY           SKY/WX    TMP DP  RH WIND       PRES   REMARKS
OMAHA EPPLEY   PTCLDY    54  52  93 CALM      30.00S
BLAIR          CLEAR     56  50  80 W7        30.00S
FREMONT        CLEAR     54  51  90 W3        30.01S
MILLARD          N/A     52  51  97 CALM      30.01S FOG
OFFUTT AFB     CLEAR     50  48  95 NW2       30.00R
PLATTSMOUTH    CLEAR     56  50  80 W7        30.02R
WAHOO          FAIR      55  50  83 CALM      30.01S
$$



USA.gov is the U.S. government's official web portal to all federal, state and local government web resources and services.